When you browse on this site, cookies collect data to enhance your experience and personalize the content and advertising you see.
Visit our Privacy Policy to learn more. By continuing to use the site, you agree to this use of cookies and data.
  • In Hungary
  • List of Countries
  • For 7 days
  • Water Temperature
  • Weather Map
  • News
  • Weather Widgets
  • user-avatar
    Login

    Hourly Weather Mohale's Hoek

    Today, 16 December, Monday

    Time Temperature Precipitation Wind Pressure Humidity
    00:00 +11°C° 0 mm 1 mps 631 mmHg 34%
    01:00 +11°C° 0 mm 1 mps 631 mmHg 34%
    02:00 +10°C° 0 mm 1 mps 631 mmHg 32%
    03:00 +9°C° 0 mm 1 mps 631 mmHg 34%
    04:00 +9°C° 0 mm 1 mps 630 mmHg 35%
    05:00 +7°C° 0 mm 0 mps 630 mmHg 37%
    06:00 +11°C° 0 mm 1 mps 632 mmHg 31%
    07:00 +14°C° 0 mm 1 mps 633 mmHg 26%
    08:00 +16°C° 0 mm 1 mps 634 mmHg 21%
    09:00 +19°C° 0 mm 1 mps 634 mmHg 18%
    10:00 +21°C° 0 mm 1 mps 634 mmHg 16%
    11:00 +23°C° 0 mm 1 mps 634 mmHg 13%
    12:00 +24°C° 0 mm 2 mps 634 mmHg 12%
    13:00 +26°C° 0 mm 2 mps 634 mmHg 12%
    14:00 +27°C° 0 mm 3 mps 634 mmHg 11%
    15:00 +27°C° 0 mm 3 mps 634 mmHg 11%
    16:00 +27°C° 0 mm 3 mps 634 mmHg 11%
    17:00 +27°C° 0 mm 4 mps 633 mmHg 11%
    18:00 +25°C° 0 mm 3 mps 633 mmHg 15%
    19:00 +21°C° 0 mm 2 mps 632 mmHg 18%
    20:00 +20°C° 0 mm 1 mps 632 mmHg 22%
    21:00 +19°C° 0 mm 1 mps 631 mmHg 22%
    22:00 +18°C° 0 mm 1 mps 631 mmHg 23%
    23:00 +18°C° 0 mm 1 mps 631 mmHg 23%

    Tomorrow, 17 December, Tuesday

    Time Temperature Precipitation Wind Pressure Humidity
    00:00 +16°C° 0 mm 1 mps 631 mmHg 23%
    01:00 +15°C° 0 mm 1 mps 630 mmHg 24%
    02:00 +15°C° 0 mm 1 mps 630 mmHg 24%
    03:00 +15°C° 0 mm 1 mps 630 mmHg 24%
    04:00 +14°C° 0 mm 1 mps 630 mmHg 24%
    05:00 +14°C° 0 mm 1 mps 630 mmHg 23%
    06:00 +17°C° 0 mm 2 mps 631 mmHg 23%
    07:00 +20°C° 0 mm 3 mps 632 mmHg 22%
    08:00 +23°C° 0 mm 4 mps 633 mmHg 21%
    09:00 +25°C° 0 mm 5 mps 633 mmHg 23%
    10:00 +27°C° 0 mm 6 mps 633 mmHg 26%
    11:00 +29°C° 0 mm 7 mps 633 mmHg 28%
    12:00 +30°C° 0 mm 7 mps 633 mmHg 23%
    13:00 +32°C° 0 mm 7 mps 633 mmHg 19%
    14:00 +34°C° 0 mm 7 mps 633 mmHg 14%
    15:00 +34°C° 0 mm 7 mps 632 mmHg 13%
    16:00 +34°C° 0 mm 7 mps 632 mmHg 12%
    17:00 +34°C° 0 mm 7 mps 631 mmHg 10%
    18:00 +30°C° 0 mm 6 mps 630 mmHg 13%
    19:00 +28°C° 0 mm 5 mps 630 mmHg 16%
    20:00 +25°C° 0 mm 4 mps 629 mmHg 19%
    21:00 +25°C° 0 mm 4 mps 629 mmHg 19%
    22:00 +25°C° 0 mm 4 mps 629 mmHg 19%
    23:00 +23°C° 0 mm 4 mps 630 mmHg 20%

    Day after tomorrow, 18 December, Wednesday

    Time Temperature Precipitation Wind Pressure Humidity
    00:00 +23°C° 0 mm 4 mps 629 mmHg 24%
    01:00 +23°C° 0 mm 5 mps 629 mmHg 29%
    02:00 +22°C° 0 mm 5 mps 629 mmHg 33%
    03:00 +21°C° 0 mm 5 mps 629 mmHg 40%
    04:00 +20°C° 0 mm 4 mps 629 mmHg 47%
    05:00 +19°C° 0 mm 4 mps 628 mmHg 53%
    06:00 +20°C° 0 mm 5 mps 629 mmHg 52%
    07:00 +22°C° 0 mm 7 mps 629 mmHg 51%
    08:00 +23°C° 0 mm 8 mps 630 mmHg 50%
    09:00 +26°C° 0.1 mm 9 mps 630 mmHg 47%
    10:00 +27°C° 0.1 mm 9 mps 630 mmHg 44%
    11:00 +29°C° 0.1 mm 10 mps 630 mmHg 40%
    12:00 +28°C° 0.5 mm 10 mps 629 mmHg 42%
    13:00 +27°C° 0.5 mm 10 mps 629 mmHg 44%
    14:00 +27°C° 0.5 mm 9 mps 628 mmHg 45%
    15:00 +26°C° 0.7 mm 8 mps 628 mmHg 45%
    16:00 +26°C° 0.7 mm 6 mps 628 mmHg 45%
    17:00 +25°C° 0.7 mm 5 mps 628 mmHg 45%
    18:00 +23°C° 0 mm 4 mps 628 mmHg 44%
    19:00 +22°C° 0 mm 4 mps 628 mmHg 43%
    20:00 +21°C° 0 mm 4 mps 628 mmHg 42%
    21:00 +20°C° 0 mm 3 mps 628 mmHg 45%
    22:00 +18°C° 0 mm 3 mps 629 mmHg 48%
    23:00 +17°C° 0 mm 2 mps 629 mmHg 51%

    19 December, Thursday

    Time Temperature Precipitation Wind Pressure Humidity
    00:00 +16°C° 0 mm 2 mps 628 mmHg 54%
    01:00 +15°C° 0 mm 2 mps 628 mmHg 57%
    02:00 +15°C° 0 mm 1 mps 627 mmHg 60%
    03:00 +14°C° 0 mm 1 mps 628 mmHg 61%
    04:00 +13°C° 0 mm 1 mps 628 mmHg 62%
    05:00 +11°C° 0 mm 0 mps 628 mmHg 63%
    06:00 +15°C° 0 mm 1 mps 629 mmHg 54%
    07:00 +18°C° 0 mm 1 mps 629 mmHg 44%
    08:00 +20°C° 0 mm 1 mps 630 mmHg 35%
    09:00 +21°C° 0 mm 2 mps 631 mmHg 30%
    10:00 +24°C° 0 mm 3 mps 631 mmHg 24%
    11:00 +26°C° 0 mm 4 mps 632 mmHg 19%
    12:00 +27°C° 0 mm 5 mps 631 mmHg 18%
    13:00 +29°C° 0 mm 6 mps 631 mmHg 16%
    14:00 +30°C° 0 mm 7 mps 631 mmHg 15%
    15:00 +30°C° 0 mm 7 mps 631 mmHg 14%
    16:00 +30°C° 0 mm 7 mps 631 mmHg 14%
    17:00 +29°C° 0 mm 8 mps 631 mmHg 13%
    18:00 +27°C° 0 mm 6 mps 630 mmHg 15%
    19:00 +25°C° 0 mm 5 mps 630 mmHg 17%
    20:00 +22°C° 0 mm 4 mps 630 mmHg 19%
    21:00 +20°C° 0 mm 3 mps 630 mmHg 21%
    22:00 +19°C° 0 mm 2 mps 630 mmHg 23%
    23:00 +19°C° 0 mm 1 mps 629 mmHg 25%

    20 December, Friday

    Time Temperature Precipitation Wind Pressure Humidity
    00:00 +18°C° 0 mm 1 mps 629 mmHg 26%
    01:00 +16°C° 0 mm 1 mps 629 mmHg 26%
    02:00 +15°C° 0 mm 0 mps 628 mmHg 27%
    03:00 +14°C° 0 mm 0 mps 629 mmHg 27%
    04:00 +14°C° 0 mm 0 mps 629 mmHg 27%
    05:00 +13°C° 0 mm 0 mps 629 mmHg 28%
    06:00 +16°C° 0 mm 0 mps 630 mmHg 23%
    07:00 +22°C° 0 mm 1 mps 632 mmHg 18%
    08:00 +25°C° 0 mm 1 mps 633 mmHg 14%
    09:00 +27°C° 0 mm 2 mps 633 mmHg 13%
    10:00 +28°C° 0 mm 3 mps 634 mmHg 12%
    11:00 +30°C° 0 mm 3 mps 634 mmHg 11%
    12:00 +32°C° 0 mm 4 mps 634 mmHg 11%
    13:00 +33°C° 0 mm 4 mps 634 mmHg 11%
    14:00 +34°C° 0 mm 5 mps 633 mmHg 10%
    15:00 +34°C° 0 mm 5 mps 633 mmHg 10%
    16:00 +34°C° 0 mm 5 mps 633 mmHg 10%
    17:00 +34°C° 0 mm 5 mps 633 mmHg 11%
    18:00 +30°C° 0 mm 4 mps 632 mmHg 14%
    19:00 +27°C° 0 mm 3 mps 631 mmHg 17%
    20:00 +24°C° 0 mm 1 mps 631 mmHg 20%
    21:00 +23°C° 0 mm 1 mps 631 mmHg 21%
    22:00 +22°C° 0 mm 1 mps 631 mmHg 22%
    23:00 +22°C° 0 mm 1 mps 631 mmHg 23%

    21 December, Saturday

    Time Temperature Precipitation Wind Pressure Humidity
    00:00 +21°C° 0 mm 1 mps 630 mmHg 24%
    01:00 +20°C° 0 mm 1 mps 630 mmHg 24%
    02:00 +20°C° 0 mm 1 mps 630 mmHg 25%
    03:00 +19°C° 0 mm 1 mps 630 mmHg 25%
    04:00 +19°C° 0 mm 1 mps 630 mmHg 25%
    05:00 +18°C° 0 mm 1 mps 630 mmHg 25%
    06:00 +22°C° 0 mm 1 mps 631 mmHg 23%
    07:00 +25°C° 0 mm 2 mps 633 mmHg 21%
    08:00 +28°C° 0 mm 2 mps 634 mmHg 19%
    09:00 +30°C° 0 mm 3 mps 634 mmHg 18%
    10:00 +33°C° 0 mm 4 mps 634 mmHg 17%
    11:00 +34°C° 0 mm 5 mps 635 mmHg 15%
    12:00 +35°C° 0 mm 5 mps 634 mmHg 14%
    13:00 +36°C° 0 mm 5 mps 634 mmHg 13%
    14:00 +36°C° 0 mm 5 mps 634 mmHg 12%
    15:00 +36°C° 0 mm 5 mps 634 mmHg 11%
    16:00 +36°C° 0 mm 5 mps 633 mmHg 11%
    17:00 +36°C° 0 mm 5 mps 633 mmHg 11%
    18:00 +33°C° 0 mm 4 mps 633 mmHg 13%
    19:00 +30°C° 0 mm 3 mps 633 mmHg 16%
    20:00 +27°C° 0 mm 2 mps 633 mmHg 18%
    21:00 +26°C° 0 mm 2 mps 634 mmHg 28%
    22:00 +25°C° 0 mm 2 mps 634 mmHg 37%
    23:00 +25°C° 0 mm 2 mps 635 mmHg 46%
    Show more